Retour au catalogue

FENGYUN 1C DEB

ActifSSO
NORAD 31357·DEBRIS·🇨🇳 China

Lancé May 10, 1999 depuis Taiyuan Satellite Launch Center

Loading…

Prochains Passages (prochaines 24 heures)

TLE

FraisSource: Space-Track

Époque: Sep 14, 2026, 00:42 UTC

1 31357U 99025BRM 26257.02938955 -.00000030  00000-0  60113-5 0  9997
2 31357  98.5834 284.5525 0049263 217.1739 172.8220 14.18558159  5962

Suivez FENGYUN 1C DEB en temps réel avec AllMySat

Download on the App Store